Weather History for Calgary Springbank, AB

Change the Weather History Date:

Sunday, March 10, 2013

  Actual Average Record
Temperature  
Mean Temperature 28 °F -  
Max Temperature 43 °F 38 °F 57 °F (2005)
Min Temperature 14 °F 17 °F -14 °F (2009)
Degree Days  
Heating Degree Days 36    
Moisture  
Dew Point 20 °F    
Average Humidity 50    
Maximum Humidity 74    
Minimum Humidity 29    
Precipitation  
Precipitation 0.00 in - - ()
Sea Level Pressure  
Sea Level Pressure 30.09 in    
Wind  
Wind Speed 13 mph ()    
Max Wind Speed 24 mph    
Max Gust Speed 38 mph    
Visibility 16.1 miles    
Events      
Averages and records for this station are not official NWS values.
T = Trace of Precipitation, MM = Missing Value Source: Averaged Metar Reports

Daily Weather History Graph

Daily Weather History Graph

Search for Another Location

Airport:

Trip Planner

Search our weather history database for the weather conditions in past years. The results will help you decide how hot, cold, wet, or windy it might be!

Date:

Astronomy

Mar. 10, 2013 Rise Set
Actual Time 8:01 AM MDT 7:34 PM MDT
Civil Twilight 7:28 AM MDT 8:07 PM MDT
Nautical Twilight 6:50 AM MDT 8:45 PM MDT
Astronomical Twilight 6:11 AM MDT 9:25 PM MDT
Moon 7:07 AM MDT (3/10) 6:46 PM MDT (3/10)
Length of Visible Light 12h 38m
Length of Day
11h 32m
Waning Crescent, 1% of the Moon is Illuminated
Mar 10
Waning Crescent
Mar 11
New
Mar 19
First Quarter
Mar 27
Full
Apr 2
Last Quarter

Hourly Weather History & Observations

Time (MDT) Temp. Windchill Dew Point Humidity Pressure Visibility Wind Dir Wind Speed Gust Speed Precip Events Conditions
5:00 AM 33.8 °F 24.3 °F 17.6 °F 52% 30.18 in 15.0 mi NW 13.8 mph - N/A   Mostly Cloudy
6:00 AM 31 °F - 19 °F 48% 30.20 in 15 mi NW 10.4 mph - -   Overcast
6:00 AM 30.2 °F 21.3 °F 19.4 °F 64% 30.20 in 15.0 mi NW 10.4 mph - N/A   Overcast
7:00 AM 33.8 °F 24.3 °F 19.4 °F 56% 30.20 in 15.0 mi NNW 13.8 mph - N/A   Mostly Cloudy
8:00 AM 32.0 °F 24.8 °F 19.4 °F 60% 30.21 in 20.0 mi NNW 8.1 mph - N/A   Overcast
9:00 AM 32.0 °F 26.4 °F 17.6 °F 55% 30.20 in 30.0 mi NE 5.8 mph - N/A   Mostly Cloudy
10:00 AM 37.4 °F 30.8 °F 19.4 °F 48% 30.17 in 30.0 mi NW 9.2 mph - N/A   Mostly Cloudy
11:00 AM 37.4 °F 30.8 °F 21.2 °F 52% 30.17 in 15.0 mi WNW 9.2 mph - N/A   Mostly Cloudy
12:00 PM 38 °F - 22 °F 40% 30.15 in 28 mi West 20.7 mph - -   Scattered Clouds
12:00 PM 39.2 °F 28.5 °F 23.0 °F 52% 30.14 in 30.0 mi West 24.2 mph 32.2 mph N/A   Mostly Cloudy
1:00 PM 41.0 °F 34.3 °F 23.0 °F 49% 30.11 in 30.0 mi West 11.5 mph - N/A   Mostly Cloudy
1:24 PM 41.0 °F 33.9 °F 21.2 °F 45% 30.08 in 30.0 mi West 12.7 mph - N/A   Mostly Cloudy
2:00 PM 41.0 °F 32.8 °F 21.2 °F 45% 30.06 in 30.0 mi WNW 16.1 mph 21.9 mph N/A   Mostly Cloudy
3:00 PM 42.8 °F 33.5 °F 21.2 °F 42% 30.01 in 30.0 mi West 23.0 mph 31.1 mph N/A   Mostly Cloudy
4:00 PM 42.8 °F 33.5 °F 17.6 °F 36% 29.98 in 30.0 mi West 23.0 mph 32.2 mph N/A   Scattered Clouds
5:00 PM 41.0 °F 30.9 °F 19.4 °F 42% 29.98 in 30.0 mi West 24.2 mph 38.0 mph N/A   Partly Cloudy
6:00 PM 40 °F - 19 °F 29% 29.99 in 28 mi West 24.2 mph - -   Scattered Clouds
6:00 PM 41.0 °F 31.4 °F 19.4 °F 42% 29.99 in 30.0 mi West 21.9 mph 33.4 mph N/A   Scattered Clouds
7:00 PM 37.4 °F 26.1 °F 17.6 °F 45% 30.00 in 25.0 mi West 24.2 mph - N/A   Mostly Cloudy
7:17 PM 35.6 °F 24.8 °F 17.6 °F 48% 30.01 in 25.0 mi West 19.6 mph 27.6 mph N/A   Scattered Clouds
8:00 PM 30.2 °F 21.9 °F 15.8 °F 55% 30.05 in 20.0 mi WNW 9.2 mph - N/A   Scattered Clouds
9:00 PM 30.2 °F 21.3 °F 21.2 °F 69% 30.08 in 15.0 mi ENE 10.4 mph - N/A   Mostly Cloudy
10:00 PM 28.4 °F 24.6 °F 21.2 °F 74% 29.96 in 15.0 mi ENE 3.5 mph - N/A   Scattered Clouds